Flag for Norway Weather past 2 weeks in Kristiansund, Norway

Now
54 °F

Passing clouds.


Feels Like: 50 °F
Forecast: 44 / 51 °F
Wind: 13 mph from East

Location: Kristiansund / Kvernberget

Current Time: Jun 2, 2015 at 4:02:18 PM

Latest Report: Jun 2, 2015 at 3:20 PM


Visibility: N/A

Pressure: 29.21 "Hg

Humidity: 47%

Dew point: 34 °F

Location of KristiansundLocation

Historic Weather in Kristiansund — Graph

°F

Kristiansund temperature yesterday

Maximum temperature yesterday: 50 °F (at 10:50 AM)
Minimum temperature yesterday: 45 °F (at 12:20 AM)
Average temperature yesterday: 46 °F

Past Weeks' High & Low Weather Summary

 TemperatureHumidityPressure
High59 °F (May 19, 1:20 PM)100% (May 21, 2:50 AM)30.01 "Hg (May 21, 2:50 AM)
Low37 °F (May 22, 9:20 PM)34% (May 19, 1:20 PM)29.12 "Hg (Jun 1, 11:20 AM)
Average47 °F76%29.65 "Hg
* Reported May 18 2:20 PM — Jun 2 2:50 PM, Kristiansund, Weather by CustomWeather, © 2015

Note: Actual official high and low records may vary slightly from our data, if they occured in-between our weather recording intervals... More about our weather records

Advertising

Kristiansund weather history for previous 24 hours

 ConditionsComfort  
Time TempWeatherWind HumidityBarometerVisibility
2:50 PM
Tue, Jun 2
54 °FPassing clouds.13 mph44%29.21 "HgN/A
2:20 PM54 °FPassing clouds.13 mph41%29.24 "HgN/A
1:50 PM54 °FPassing clouds.13 mph41%29.24 "HgN/A
1:20 PM54 °FPassing clouds.13 mph44%29.27 "HgN/A
12:50 PM54 °FPassing clouds.16 mph41%29.30 "HgN/A
12:20 PM54 °FPassing clouds.16 mph41%29.33 "HgN/A
11:50 AM55 °FSunny.16 mph38%29.33 "Hg10 mi
11:20 AM55 °FPassing clouds.12 mph41%29.36 "HgN/A
10:50 AM54 °FPassing clouds.10 mph41%29.39 "HgN/A
10:20 AM54 °FSunny.13 mph47%29.42 "Hg10 mi
9:50 AM54 °FSunny.12 mph41%29.42 "Hg10 mi
9:20 AM52 °FPassing clouds.9 mph50%29.45 "HgN/A
8:50 AM52 °FSunny.9 mph50%29.47 "Hg10 mi
8:20 AM50 °FSunny.8 mph54%29.47 "Hg10 mi
7:50 AM50 °FPassing clouds.8 mph54%29.47 "HgN/A
7:20 AM48 °FSunny.7 mph66%29.50 "Hg10 mi
6:50 AM46 °FPassing clouds.6 mph66%29.50 "HgN/A
5:20 AM43 °FQuite cool.6 mph71%29.53 "HgN/A
4:50 AM41 °FQuite cool.6 mph76%29.53 "HgN/A
4:20 AM39 °FChilly.2 mph75%29.53 "HgN/A
3:50 AM41 °FQuite cool.2 mph70%29.53 "HgN/A
3:20 AM39 °FChilly.2 mph81%29.53 "HgN/A
2:50 AM41 °FQuite cool.3 mph76%29.53 "HgN/A
2:20 AM41 °FQuite cool.3 mph76%29.53 "HgN/A
1:50 AM45 °FQuite cool.7 mph66%29.53 "HgN/A
1:20 AM45 °FQuite cool.9 mph66%29.53 "HgN/A
12:50 AM46 °FPassing clouds.9 mph66%29.53 "HgN/A
12:20 AM46 °FPassing clouds.13 mph66%29.53 "HgN/A
11:50 PM
Mon, Jun 1
46 °FBroken clouds.12 mph71%29.50 "HgN/A
11:20 PM45 °FDrizzle. Mostly cloudy.18 mph81%29.50 "HgN/A
10:50 PM46 °FDrizzle. Partly sunny.17 mph76%29.47 "HgN/A
10:20 PM45 °FDrizzle. Partly sunny.17 mph81%29.47 "HgN/A
9:50 PM45 °FRain. Broken clouds.14 mph87%29.45 "Hg4 mi
9:20 PM45 °FDrizzle. Broken clouds.20 mph81%29.45 "HgN/A
8:50 PM45 °FDrizzle. Broken clouds.21 mph81%29.42 "HgN/A
8:20 PM45 °FLight rain. Broken clouds.18 mph81%29.42 "HgN/A
7:50 PM45 °FLight rain. Broken clouds.22 mph81%29.39 "HgN/A
7:20 PM45 °FLight rain. Broken clouds.22 mph81%29.36 "HgN/A
6:50 PM45 °FLight rain. Broken clouds.15 mph87%29.36 "HgN/A
6:20 PM45 °FLight rain. Broken clouds.13 mph87%29.36 "HgN/A
5:50 PM45 °FRain. Broken clouds.20 mph87%29.33 "HgN/A
5:20 PM45 °FRain. Broken clouds.18 mph87%29.30 "Hg4 mi
4:50 PM45 °FRain. Broken clouds.14 mph93%29.30 "Hg5 mi
4:20 PM45 °FRain. Broken clouds.18 mph93%29.27 "Hg5 mi
Weather by CustomWeather, © 2015

See weather overviewHow to use our weather pages